Weather in Svobodny

Russia / Sverdlovsk Oblast     58°02′13″N   60°23′20″E
temp.,
°C
wind,
m/s
gust,
m/s
humid.,
%
clouds,
%
prec.,
mm/h
press.,
hPa
HPBL,
m
5 august, thu
thu523:00+17sse3109281 0.5 1011229
02:00+17s26976 0.0 1009113
05:00+18sw0095100 0.2 100911
08:00+21sw118470 0.0 1009158
11:00+27se235375 0.0 1008669
14:00+26sse125065 0.0 1007203
17:00+30wsw464291 0.0 10061638
20:00+24wnw49704 0.0 1007559
6 august, fri
fri623:00+18wnw410926 0.2 1007413
02:00+15w399326 0.0 1008435
05:00+15wnw378999 0.0 1007546
08:00+16wnw3686100 0.0 1008404
11:00+17nw4783100 0.1 1009601
14:00+16nw3790100 0.3 1010410
17:00+19nw4771100 0.6 1011738
20:00+16nw229495 0.9 101266
7 august, sat
sat723:00+14wnw239458 0.9 101263
02:00+13nw379493 0.0 1012162
05:00+10wnw36930 0.0 1013112
08:00+13nw36790 0.0 1013335
11:00+19nw35510 0.0 10121138
14:00+22nw46420 0.0 10121978
17:00+18nnw5760100 0.0 10131094
20:00+16nw486868 0.0 1014969
8 august, sun
sun823:00+14wnw48759 0.0 1014592
02:00+9nw38961 0.0 1015234
05:00+8wnw379820 0.0 1016182
08:00+12nw357546 0.0 1016353
11:00+18nw355893 0.0 1016885
14:00+22nnw455017 0.0 10161316
17:00+23n355149 0.0 10161348
20:00+19nw257112 0.0 1017119
9 august, mon
mon923:00+13nw39889 0.0 1018194
02:00+11wnw259354 0.0 101991
05:00+10nw22975 0.0 101950
08:00+14nw237959 0.0 1019294
11:00+19wnw235679 0.0 1018954
14:00+23nw354468 0.0 10181416
17:00+24nnw3637100 0.0 10171732
20:00+18nw2462100 0.0 101884